Regional Weather Roundup
Issued by NWS Kansas City/Pleasant Hill, MO

Home | Current Version | Previous Version | Graphics & Text | Print | Product List | Glossary Off
Versions: 1 2 3 4 5 6 7 8 9 10 11 12 13 14 15 16 17 18 19 20 21 22 23 24 25 26 27 28 29 30 31 32 33 34 35 36 37 38 39 40 41 42 43 44 45 46 47 48 49 50

000
ASUS43 KEAX 212310
RWREAX

WEATHER ROUNDUP FOR EASTERN KANSAS AND NORTHWEST MISSOURI
NATIONAL WEATHER SERVICE KANSAS CITY/PLEASANT HILL MO
600 PM CDT SAT APR 21 2018

KSZ040-057-103>105-MOZ028-029-037-043-220000-
...KANSAS CITY METROPOLITAN AREA...

CITY           SKY/WX    TMP DP  RH WIND       PRES   REMARKS
K.C. INTL      CLOUDY    64  30  27 E17       30.12R
K.C. DOWNTOWN  CLOUDY    66  31  27 E15G26    30.10R
LEES SUMMIT    CLOUDY    64  32  30 E12G24    30.11S
OLATHE - IXD   CLOUDY    64  35  34 E5        30.10F
OLATHE - OJC   CLOUDY    62  35  36 E12       30.09F
LAWRENCE       CLOUDY    58  41  53 NW10      30.12R

$$

MOZ001>008-011>017-020>025-030>033-038>040-044>046-053-054-220000-
...NORTHERN AND CENTRAL MISSOURI...

CITY           SKY/WX    TMP DP  RH WIND       PRES   REMARKS
ST. JOSEPH     CLOUDY    63  33  32 E17G28    30.14R
MOSBY          CLOUDY    64  28  25 E18G26    30.13R
WARRENSBURG    CLOUDY    64  30  27 E17       30.11F
WHITEMAN AFB   CLOUDY    65  31  28 E14       30.08F
CLINTON        CLOUDY    64  36  34 E14       30.10F
SEDALIA        CLOUDY    66  31  27 E12       30.15S
WARSAW         NOT AVBL
CHILLICOTHE      N/A     60  28  29 E8        30.19S
KIRKSVILLE     CLOUDY    59  29  31 E10G21    30.22S

$$

MOZ041-047>049-056>058-063>065-088>090-097-220000-
...EASTERN AND SOUTHERN MISSOURI...

CITY           SKY/WX    TMP DP  RH WIND       PRES   REMARKS
ST. LOUIS INTL CLOUDY    65  32  29 E14       30.20S
SPIRIT OF STL  MOSUNNY   65  35  33 E12       30.18R
COLUMBIA       PTSUNNY   64  28  25 NE13      30.15S
JEFFERSON CITY CLOUDY    66  27  23 E14       30.14S
ROLLA          CLOUDY    65  34  31 NE13      30.13S
OSAGE BEACH    CLOUDY    67  33  28 NE15      30.11F
SPRINGFIELD    PTSUNNY   64  39  39 SE10      30.06F
BRANSON        CLOUDY    64  41  42 E12G18    30.07F
JOPLIN         LGT RAIN  55  53  93 NE3       30.06F FOG
WEST PLAINS    CLOUDY    67  34  29 VRB7      30.12F

$$

IAZ060-094-KSZ022-034>040-054-083-096-NEZ052-066-093-220000-
...KANSAS...SOUTHEAST NEBRASKA AND IOWA...

CITY           SKY/WX    TMP DP  RH WIND       PRES   REMARKS
TOPEKA         CLOUDY    52  44  74 NW13      30.14F
MANHATTAN      LGT RAIN  49  45  86 E7        30.19R FOG
EMPORIA        LGT RAIN  46  42  86 N7        30.15S FOG
CHANUTE        LGT RAIN  48  46  93 NW10      30.13R FOG
WICHITA        LGT RAIN  45  44  97 NE13      30.12F
OMAHA          CLOUDY    55  33  43 NE16G22   30.23F
LINCOLN        CLOUDY    49  41  74 N6        30.22F
FALLS CITY     CLOUDY    53  41  63 N9        30.17S
LAMONI         CLOUDY    57  31  37 NE14G21   30.20F
DES MOINES     CLOUDY    58  24  27 E6        30.26R

$$




USA.gov is the U.S. government's official web portal to all federal, state and local government web resources and services.